Flag for U.S.A. Weather past 2 weeks in Hialeah, Florida, U.S.A.

Now
81 °F

Clear.


Feels Like: 87 °F
Forecast: 75 / 87 °F
Wind: 3 mph from West

Location: Opa Locka Airport

Current Time: Oct 2, 2014 at 12:59:05 AM

Latest Report: Oct 1, 2014 at 11:53 PM


Visibility: 10 mi

Pressure: 29.99 "Hg

Humidity: 85%

Dew point: 76 °F

Location of HialeahLocation

Historic Weather in Hialeah — Graph

°F

Hialeah temperature yesterday

Maximum temperature yesterday: 93 °F (at 2:53 PM)
Minimum temperature yesterday: 78 °F (at 4:53 AM)
Average temperature yesterday: 84 °F

Past Weeks' High & Low Weather Summary

 TemperatureHumidityPressure
High93 °F (Oct 1, 2:53 PM)97% (Sep 23, 9:53 AM)30.06 "Hg (Sep 23, 9:53 AM)
Low74 °F (Sep 21, 2:53 AM)47% (Sep 17, 1:53 PM)29.83 "Hg (Sep 29, 4:53 PM)
Average81 °F79%29.96 "Hg
* Reported Sep 16 10:53 PM — Oct 1 10:53 PM, Hialeah, Weather by CustomWeather, © 2014

Note: Actual official high and low records may vary slightly from our data, if they occured in-between our weather recording intervals... More about our weather records

Advertising

Hialeah weather history for previous 24 hours

 ConditionsComfort  
Time TempWeatherWind HumidityBarometerVisibility
10:53 PM
Oct 1
80 °FClear.5 mph81%30.00 "Hg10 mi
9:53 PM80 °FPassing clouds.5 mph81%29.98 "Hg10 mi
8:53 PM83 °FPassing clouds.7 mph74%29.95 "Hg10 mi
7:53 PM84 °FSunny.3 mph70%29.93 "Hg10 mi
6:53 PM88 °FThunderstorms. Sunny.9 mph61%29.91 "Hg10 mi
5:53 PM90 °FPassing clouds.14 mph61%29.89 "Hg10 mi
4:53 PM90 °FScattered clouds.14 mph56%29.89 "Hg10 mi
3:53 PM92 °FPassing clouds.12 mph51%29.90 "Hg10 mi
2:53 PM93 °FSunny.9 mph49%29.90 "Hg10 mi
1:53 PM92 °FSunny.12 mph52%29.92 "Hg10 mi
12:53 PM90 °FPassing clouds.10 mph56%29.95 "Hg10 mi
11:53 AM87 °FPartly sunny.12 mph63%29.96 "Hg10 mi
10:53 AM87 °FSunny.10 mph67%29.96 "Hg10 mi
9:53 AM86 °FPassing clouds.10 mph72%29.96 "Hg10 mi
8:53 AM83 °FSunny.7 mph79%29.94 "Hg10 mi
7:53 AM79 °FClear.3 mph90%29.93 "Hg10 mi
6:53 AM78 °FClear.3 mph90%29.91 "Hg10 mi
5:53 AM78 °FClear.3 mph93%29.89 "Hg10 mi
4:53 AM78 °FClear.No wind93%29.88 "Hg10 mi
3:53 AM79 °FClear.No wind90%29.88 "Hg10 mi
2:53 AM79 °FClear.3 mph90%29.88 "Hg10 mi
1:53 AM79 °FClear.5 mph90%29.88 "Hg10 mi
12:53 AM79 °FClear.3 mph90%29.89 "Hg10 mi
Weather by CustomWeather, © 2014

See weather overviewHow to use our weather pages